Regional Weather Roundup
Issued by NWS Goodland, KS

Home | Current Version | Previous Version | Graphics & Text | Print | Product List | Glossary On
Versions: 1 2 3 4 5 6 7 8 9 10 11 12 13 14 15 16 17 18 19 20 21 22 23 24 25 26 27 28 29 30 31 32 33 34 35 36 37 38 39 40 41 42 43 44 45 46 47 48 49 50
000
ASUS43 KGLD 011808
RWRGLD

GOODLAND FORECAST AREA HOURLY WEATHER ROUNDUP
NATIONAL WEATHER SERVICE GOODLAND KS
1200 PM MDT TUE SEP 01 2015

...OFFICIAL OBSERVATIONS...

CITY           SKY/WX    TMP DP  RH WIND       PRES   REMARKS
GOODLAND KS    SUNNY     83  56  39 SW5       30.01F
HILL CITY KS   SUNNY     89  60  37 VRB6      29.94F
IMPERIAL NEB   SUNNY     86  54  33 VRB7      29.97F
MCCOOK NEB     SUNNY     87  60  40 W5        29.94F
AKRON CO       SUNNY     84  48  28 W9        30.06F
BURLINGTON CO  SUNNY     85  56  37 VRB3      30.05F
LIMON CO       MOSUNNY   79  52  38 SW3       30.12F
$$

...UNOFFICIAL OBSERVATIONS...

CITY           SKY/WX    TMP DP  RH WIND       PRES   REMARKS
COLBY KS       SUNNY     86  61  42 W5        29.99F
GOVE KS          N/A     89  32  13 MISG        N/A
LENORA KS        N/A     85  32  15 MISG        N/A
NORTON KS      SUNNY     88  61  40 CALM      29.92
SHARON SPRINGS   N/A     88  60  39 W5          N/A
TRENTON NEB      N/A     89  32  13 SW6         N/A
KIT CARSON CO    N/A     85  58  39 MISG        N/A
YUMA CO          N/A     85  51  30 N6          N/A
$$



USA.gov is the U.S. government's official web portal to all federal, state and local government web resources and services.